| time (UTC) | temp C | wind direction | speed KPH | gust KPH | rain 1hr cm | rain 24hr cm | rain mn cm | humidity % | barometer mb |
| 20260905223512 | 15 | 241 | 0.0 | 3.2 | 0.00 | 0.18 | 0.00 | 68 | 1024.8 |
| 20260905223010 | 15 | 241 | 0.0 | 3.2 | 0.00 | 0.18 | 0.00 | 69 | 1024.7 |
| 20260905222511 | 15 | 210 | 0.0 | 0.0 | 0.00 | 0.18 | 0.00 | 69 | 1024.9 |
| 20260905222007 | 15 | 210 | 0.0 | 0.0 | 0.00 | 0.18 | 0.00 | 69 | 1024.7 |
| 20260905221507 | 15 | 210 | 0.0 | 0.0 | 0.00 | 0.18 | 0.00 | 69 | 1024.7 |
| 20260905221007 | 15 | 210 | 0.0 | 1.6 | 0.00 | 0.18 | 0.00 | 70 | 1024.7 |
| 20260905220508 | 15 | 210 | 0.0 | 1.6 | 0.00 | 0.18 | 0.00 | 70 | 1024.7 |
| 20260905220004 | 15 | 205 | 0.0 | 3.2 | 0.00 | 0.18 | 0.18 | 70 | 1024.5 |
| 20260905215504 | 15 | 205 | 0.0 | 3.2 | 0.00 | 0.18 | 0.18 | 68 | 1024.5 |
| 20260905215003 | 15 | 205 | 0.0 | 1.6 | 0.00 | 0.18 | 0.18 | 68 | 1024.5 |
| 20260905214506 | 15 | 276 | 0.0 | 3.2 | 0.00 | 0.18 | 0.18 | 66 | 1024.5 |
| 20260905214003 | 15 | 214 | 0.0 | 4.8 | 0.00 | 0.18 | 0.18 | 66 | 1024.5 |
| 20260905213502 | 15 | 214 | 0.0 | 4.8 | 0.00 | 0.18 | 0.18 | 65 | 1024.5 |
| 20260905213002 | 16 | 300 | 0.0 | 4.8 | 0.00 | 0.18 | 0.18 | 64 | 1024.4 |
| 20260905212501 | 16 | 299 | 0.0 | 4.8 | 0.00 | 0.18 | 0.18 | 64 | 1024.3 |
| 20260905212000 | 16 | 183 | 0.0 | 4.8 | 0.00 | 0.18 | 0.18 | 65 | 1024.2 |
| 20260905211604 | 16 | 224 | 0.0 | 1.6 | 0.00 | 0.18 | 0.18 | 64 | 1024.3 |
| 20260905211100 | 16 | 224 | 0.0 | 1.6 | 0.00 | 0.18 | 0.18 | 64 | 1024.1 |
| 20260905210600 | 16 | 224 | 0.0 | 4.8 | 0.00 | 0.18 | 0.18 | 64 | 1024.1 |
| 20260905205556 | 16 | 214 | 0.0 | 4.8 | 0.00 | 0.18 | 0.18 | 63 | 1024.1 |
| 20260905205057 | 16 | 190 | 0.0 | 3.2 | 0.00 | 0.18 | 0.18 | 63 | 1024.0 |
| 20260905204555 | 16 | 218 | 0.0 | 3.2 | 0.00 | 0.18 | 0.18 | 63 | 1024.1 |
| 20260905204055 | 16 | 215 | 0.0 | 4.8 | 0.00 | 0.18 | 0.18 | 62 | 1024.0 |
| 20260905203556 | 16 | 205 | 0.0 | 6.4 | 0.00 | 0.18 | 0.18 | 62 | 1023.9 |
| 20260905203056 | 16 | 33 | 0.0 | 6.4 | 0.00 | 0.18 | 0.18 | 61 | 1023.8 |
| 20260905202551 | 16 | 257 | 0.0 | 4.8 | 0.00 | 0.18 | 0.18 | 60 | 1023.6 |
| 20260905202051 | 17 | 256 | 0.0 | 8.0 | 0.00 | 0.18 | 0.18 | 60 | 1023.6 |
| 20260905201550 | 17 | 208 | 0.0 | 8.0 | 0.00 | 0.18 | 0.18 | 61 | 1023.5 |
| 20260905201050 | 16 | 207 | 1.6 | 6.4 | 0.00 | 0.18 | 0.18 | 61 | 1023.4 |
| 20260905200549 | 17 | 185 | 0.0 | 4.8 | 0.00 | 0.18 | 0.18 | 60 | 1023.3 |
| 20260905200149 | 17 | 215 | 0.0 | 4.8 | 0.00 | 0.18 | 0.18 | 59 | 1023.3 |
| 20260905195552 | 17 | 226 | 0.0 | 9.7 | 0.00 | 0.18 | 0.18 | 59 | 1023.2 |
| 20260905195056 | 17 | 189 | 1.6 | 9.7 | 0.00 | 0.18 | 0.18 | 58 | 1023.1 |
| 20260905194551 | 17 | 210 | 0.0 | 9.7 | 0.00 | 0.18 | 0.18 | 59 | 1023.0 |
| 20260905194051 | 17 | 202 | 1.6 | 11.3 | 0.00 | 0.18 | 0.18 | 59 | 1022.9 |
| 20260905193550 | 17 | 212 | 1.6 | 11.3 | 0.00 | 0.18 | 0.18 | 59 | 1022.9 |
| 20260905193050 | 17 | 213 | 0.0 | 6.4 | 0.00 | 0.18 | 0.18 | 59 | 1022.8 |
| 20260905192549 | 17 | 214 | 0.0 | 11.3 | 0.00 | 0.18 | 0.18 | 59 | 1022.9 |
| 20260905192048 | 17 | 148 | 0.0 | 6.4 | 0.00 | 0.18 | 0.18 | 59 | 1022.8 |
| 20260905191649 | 17 | 210 | 0.0 | 6.4 | 0.00 | 0.18 | 0.18 | 58 | 1022.7 |
| 20260905191048 | 17 | 187 | 0.0 | 8.0 | 0.00 | 0.18 | 0.18 | 58 | 1022.8 |
| 20260905190549 | 17 | 294 | 1.6 | 8.0 | 0.00 | 0.18 | 0.18 | 58 | 1022.8 |
| 20260905190147 | 17 | 299 | 0.0 | 4.8 | 0.00 | 0.18 | 0.18 | 59 | 1022.7 |
| 20260905185540 | 17 | 249 | 0.0 | 3.2 | 0.00 | 0.18 | 0.18 | 59 | 1022.6 |
| 20260905185039 | 17 | 210 | 0.0 | 6.4 | 0.00 | 0.18 | 0.18 | 58 | 1022.5 |
| 20260905184552 | 17 | 282 | 0.0 | 8.0 | 0.00 | 0.18 | 0.18 | 58 | 1022.5 |
| 20260905184038 | 17 | 243 | 0.0 | 8.0 | 0.00 | 0.18 | 0.18 | 58 | 1022.5 |
| 20260905183539 | 17 | 209 | 1.6 | 6.4 | 0.00 | 0.18 | 0.18 | 59 | 1022.4 |
| 20260905183043 | 17 | 214 | 0.0 | 4.8 | 0.00 | 0.18 | 0.18 | 59 | 1022.2 |
| 20260905182536 | 17 | 203 | 0.0 | 4.8 | 0.00 | 0.18 | 0.18 | 60 | 1022.2 |
| 20260905182035 | 17 | 215 | 0.0 | 4.8 | 0.00 | 0.18 | 0.18 | 60 | 1022.2 |
| 20260905181534 | 17 | 266 | 0.0 | 3.2 | 0.00 | 0.18 | 0.18 | 59 | 1022.1 |
| 20260905181033 | 17 | 280 | 0.0 | 4.8 | 0.00 | 0.18 | 0.18 | 59 | 1022.0 |
| 20260905180522 | 17 | 20 | 0.0 | 4.8 | 0.00 | 0.18 | 0.18 | 59 | 1021.9 |
| 20260905180023 | 18 | 197 | 0.0 | 3.2 | 0.00 | 0.18 | 0.18 | 58 | 1021.8 |
| 20260905175524 | 18 | 195 | 0.0 | 4.8 | 0.00 | 0.18 | 0.18 | 57 | 1021.6 |
| 20260905175021 | 18 | 164 | 0.0 | 3.2 | 0.00 | 0.18 | 0.18 | 57 | 1021.6 |
| 20260905174520 | 18 | 166 | 0.0 | 6.4 | 0.00 | 0.18 | 0.18 | 55 | 1021.5 |
| 20260905174019 | 19 | 155 | 1.6 | 9.7 | 0.00 | 0.18 | 0.18 | 55 | 1021.4 |
| 20260905173519 | 19 | 278 | 0.0 | 6.4 | 0.00 | 0.18 | 0.18 | 55 | 1021.4 |
| 20260905173018 | 19 | 281 | 0.0 | 4.8 | 0.00 | 0.18 | 0.18 | 55 | 1021.3 |
| 20260905172517 | 19 | 172 | 0.0 | 9.7 | 0.00 | 0.18 | 0.18 | 54 | 1021.2 |
| 20260905172016 | 20 | 192 | 1.6 | 6.4 | 0.00 | 0.18 | 0.18 | 53 | 1021.1 |
| 20260905171516 | 20 | 177 | 1.6 | 11.3 | 0.00 | 0.18 | 0.18 | 52 | 1021.0 |
| 20260905171017 | 20 | 226 | 1.6 | 11.3 | 0.00 | 0.18 | 0.18 | 53 | 1020.9 |
| 20260905170515 | 20 | 331 | 1.6 | 8.0 | 0.00 | 0.18 | 0.18 | 52 | 1020.9 |
| 20260905170014 | 20 | 274 | 1.6 | 8.0 | 0.00 | 0.18 | 0.18 | 53 | 1020.8 |
| 20260905165512 | 20 | 107 | 1.6 | 6.4 | 0.00 | 0.18 | 0.18 | 53 | 1020.7 |
| 20260905165013 | 20 | 77 | 0.0 | 8.0 | 0.00 | 0.18 | 0.18 | 53 | 1020.6 |
| 20260905164512 | 20 | 82 | 0.0 | 6.4 | 0.00 | 0.18 | 0.18 | 53 | 1020.6 |
| 20260905164012 | 20 | 74 | 0.0 | 6.4 | 0.00 | 0.18 | 0.18 | 53 | 1020.4 |
| 20260905163512 | 20 | 73 | 1.6 | 8.0 | 0.00 | 0.18 | 0.18 | 54 | 1020.4 |
| 20260905163012 | 20 | 216 | 1.6 | 8.0 | 0.00 | 0.18 | 0.18 | 52 | 1020.3 |
| 20260905162510 | 20 | 349 | 1.6 | 8.0 | 0.00 | 0.18 | 0.18 | 53 | 1020.4 |
| 20260905162009 | 21 | 192 | 1.6 | 8.0 | 0.00 | 0.18 | 0.18 | 52 | 1020.1 |
| 20260905161509 | 21 | 220 | 0.0 | 11.3 | 0.00 | 0.18 | 0.18 | 53 | 1020.0 |
| 20260905161009 | 21 | 166 | 1.6 | 14.5 | 0.00 | 0.18 | 0.18 | 53 | 1020.0 |
| 20260905160509 | 21 | 47 | 3.2 | 14.5 | 0.00 | 0.18 | 0.18 | 52 | 1020.1 |
| 20260905160011 | 21 | 216 | 0.0 | 4.8 | 0.00 | 0.18 | 0.18 | 53 | 1020.0 |
| 20260905155510 | 21 | 253 | 0.0 | 6.4 | 0.00 | 0.18 | 0.18 | 55 | 1019.9 |
| 20260905155008 | 21 | 116 | 0.0 | 9.7 | 0.00 | 0.18 | 0.18 | 53 | 1019.9 |
| 20260905154508 | 20 | 204 | 0.0 | 11.3 | 0.00 | 0.18 | 0.18 | 54 | 1019.9 |
| 20260905154008 | 20 | 14 | 1.6 | 11.3 | 0.00 | 0.18 | 0.18 | 54 | 1019.8 |
| 20260905153508 | 21 | 312 | 0.0 | 6.4 | 0.00 | 0.18 | 0.18 | 54 | 1019.9 |
| 20260905153010 | 21 | 206 | 1.6 | 6.4 | 0.00 | 0.18 | 0.18 | 53 | 1019.8 |
| 20260905152507 | 21 | 277 | 1.6 | 6.4 | 0.00 | 0.18 | 0.18 | 53 | 1019.8 |
| 20260905152007 | 21 | 248 | 1.6 | 6.4 | 0.00 | 0.18 | 0.18 | 54 | 1019.7 |
| 20260905151507 | 21 | 148 | 1.6 | 4.8 | 0.00 | 0.18 | 0.18 | 55 | 1019.7 |
| 20260905151007 | 21 | 47 | 0.0 | 4.8 | 0.00 | 0.18 | 0.18 | 56 | 1019.8 |
| 20260905150506 | 21 | 324 | 0.0 | 11.3 | 0.00 | 0.18 | 0.18 | 56 | 1019.8 |
| 20260905150006 | 21 | 219 | 1.6 | 11.3 | 0.00 | 0.18 | 0.18 | 56 | 1019.7 |
| 20260905145506 | 21 | 210 | 0.0 | 8.0 | 0.00 | 0.18 | 0.18 | 57 | 1019.8 |
| 20260905145006 | 21 | 56 | 1.6 | 8.0 | 0.00 | 0.18 | 0.18 | 53 | 1019.7 |
| 20260905144506 | 22 | 245 | 0.0 | 11.3 | 0.00 | 0.18 | 0.18 | 53 | 1019.7 |
| 20260905144005 | 22 | 299 | 1.6 | 11.3 | 0.00 | 0.18 | 0.18 | 55 | 1019.6 |
| 20260905143507 | 22 | 124 | 1.6 | 11.3 | 0.00 | 0.18 | 0.18 | 54 | 1019.5 |
| 20260905143015 | 21 | 274 | 1.6 | 11.3 | 0.00 | 0.18 | 0.18 | 53 | 1019.7 |
| 20260905142506 | 22 | 203 | 1.6 | 9.7 | 0.00 | 0.18 | 0.18 | 53 | 1019.6 |
| 20260905142004 | 21 | 275 | 1.6 | 9.7 | 0.00 | 0.18 | 0.18 | 54 | 1019.6 |
| 20260905141503 | 21 | 322 | 1.6 | 9.7 | 0.00 | 0.18 | 0.18 | 55 | 1019.6 |
| 20260905141005 | 21 | 266 | 1.6 | 8.0 | 0.00 | 0.18 | 0.18 | 54 | 1019.6 |
| 20260905140504 | 21 | 219 | 1.6 | 8.0 | 0.00 | 0.18 | 0.18 | 54 | 1019.8 |
| 20260905140004 | 21 | 223 | 1.6 | 6.4 | 0.00 | 0.18 | 0.18 | 54 | 1019.6 |
| 20260905135504 | 21 | 245 | 1.6 | 9.7 | 0.00 | 0.18 | 0.18 | 56 | 1019.7 |
| 20260905135004 | 21 | 210 | 1.6 | 6.4 | 0.00 | 0.18 | 0.18 | 56 | 1019.6 |
| 20260905134507 | 21 | 168 | 0.0 | 6.4 | 0.00 | 0.18 | 0.18 | 57 | 1019.7 |
| 20260905134003 | 21 | 255 | 0.0 | 9.7 | 0.00 | 0.18 | 0.18 | 58 | 1019.7 |
| 20260905133503 | 21 | 35 | 1.6 | 9.7 | 0.00 | 0.18 | 0.18 | 57 | 1019.7 |
| 20260905133002 | 22 | 20 | 1.6 | 8.0 | 0.00 | 0.18 | 0.18 | 55 | 1019.7 |
| 20260905132502 | 22 | 243 | 1.6 | 8.0 | 0.00 | 0.18 | 0.18 | 57 | 1019.8 |
| 20260905132002 | 22 | 261 | 1.6 | 11.3 | 0.00 | 0.18 | 0.18 | 57 | 1019.7 |
| 20260905131501 | 22 | 286 | 3.2 | 11.3 | 0.00 | 0.18 | 0.18 | 58 | 1019.8 |
| 20260905131001 | 22 | 360 | 1.6 | 6.4 | 0.00 | 0.18 | 0.18 | 58 | 1019.7 |
| 20260905130502 | 21 | 45 | 1.6 | 12.9 | 0.00 | 0.18 | 0.18 | 59 | 1019.7 |
| 20260905130002 | 21 | 77 | 1.6 | 6.4 | 0.00 | 0.18 | 0.18 | 59 | 1019.7 |
| 20260905125502 | 21 | 275 | 0.0 | 8.0 | 0.00 | 0.18 | 0.18 | 60 | 1019.8 |
| 20260905125101 | 20 | 195 | 1.6 | 8.0 | 0.00 | 0.18 | 0.18 | 58 | 1019.8 |
| 20260905125001 | 20 | 210 | 1.6 | 8.0 | 0.00 | 0.18 | 0.18 | 59 | 1019.8 |
| 20260905124602 | 20 | 222 | 0.0 | 8.0 | 0.00 | 0.18 | 0.18 | 59 | 1019.9 |
| 20260905124100 | 21 | 180 | 0.0 | 8.0 | 0.00 | 0.18 | 0.18 | 58 | 1019.9 |
| 20260905123600 | 21 | 210 | 0.0 | 9.7 | 0.00 | 0.18 | 0.18 | 61 | 1019.9 |
| 20260905123101 | 21 | 228 | 1.6 | 11.3 | 0.00 | 0.18 | 0.18 | 59 | 1020.0 |
| 20260905122559 | 21 | 293 | 0.0 | 11.3 | 0.00 | 0.18 | 0.18 | 62 | 1019.9 |
| 20260905122059 | 20 | 241 | 3.2 | 14.5 | 0.00 | 0.18 | 0.18 | 59 | 1020.1 |
| 20260905121557 | 20 | 33 | 1.6 | 14.5 | 0.00 | 0.18 | 0.18 | 61 | 1020.0 |
| 20260905121058 | 20 | 203 | 0.0 | 6.4 | 0.00 | 0.18 | 0.18 | 62 | 1020.0 |
| 20260905120600 | 20 | 128 | 0.0 | 14.5 | 0.00 | 0.18 | 0.18 | 64 | 1020.1 |
| 20260905120108 | 20 | 176 | 1.6 | 14.5 | 0.00 | 0.18 | 0.18 | 62 | 1020.1 |
| 20260905115559 | 20 | 294 | 0.0 | 4.8 | 0.00 | 0.18 | 0.18 | 64 | 1020.2 |
| 20260905115057 | 20 | 203 | 0.0 | 6.4 | 0.00 | 0.18 | 0.18 | 64 | 1020.1 |
| 20260905114556 | 20 | 356 | 1.6 | 6.4 | 0.00 | 0.18 | 0.18 | 63 | 1020.1 |
| 20260905114057 | 20 | 292 | 1.6 | 8.0 | 0.00 | 0.18 | 0.18 | 63 | 1020.1 |
| 20260905113556 | 20 | 170 | 1.6 | 11.3 | 0.00 | 0.18 | 0.18 | 67 | 1020.2 |
| 20260905113055 | 19 | 191 | 1.6 | 11.3 | 0.00 | 0.18 | 0.18 | 64 | 1020.2 |
| 20260905112554 | 20 | 222 | 1.6 | 8.0 | 0.00 | 0.18 | 0.18 | 62 | 1020.3 |
| 20260905112155 | 20 | 334 | 1.6 | 6.4 | 0.00 | 0.18 | 0.18 | 63 | 1020.2 |
| 20260905111052 | 19 | 350 | 3.2 | 11.3 | 0.00 | 0.18 | 0.18 | 65 | 1020.3 |
| 20260905110555 | 20 | 184 | 1.6 | 8.0 | 0.00 | 0.18 | 0.18 | 67 | 1020.2 |
| 20260905110057 | 19 | 311 | 1.6 | 6.4 | 0.00 | 0.18 | 0.18 | 68 | 1020.3 |
| 20260905105551 | 19 | 241 | 1.6 | 6.4 | 0.00 | 0.18 | 0.18 | 66 | 1020.2 |
| 20260905105050 | 18 | 207 | 1.6 | 8.0 | 0.00 | 0.18 | 0.18 | 67 | 1020.3 |
| 20260905104551 | 18 | 217 | 3.2 | 8.0 | 0.00 | 0.18 | 0.18 | 71 | 1020.3 |
| 20260905104050 | 18 | 171 | 1.6 | 14.5 | 0.00 | 0.18 | 0.18 | 70 | 1020.3 |
| 20260905103550 | 18 | 197 | 1.6 | 14.5 | 0.00 | 0.18 | 0.18 | 70 | 1020.3 |
| 20260905103050 | 18 | 124 | 1.6 | 4.8 | 0.00 | 0.18 | 0.18 | 70 | 1020.3 |
| 20260905102549 | 18 | 297 | 1.6 | 4.8 | 0.00 | 0.18 | 0.18 | 72 | 1020.3 |
| 20260905102049 | 18 | 195 | 0.0 | 4.8 | 0.00 | 0.18 | 0.18 | 71 | 1020.3 |
| 20260905101550 | 18 | 245 | 0.0 | 4.8 | 0.00 | 0.18 | 0.18 | 74 | 1020.4 |
| 20260905101048 | 18 | 268 | 0.0 | 8.0 | 0.00 | 0.18 | 0.18 | 72 | 1020.3 |
| 20260905100550 | 18 | 134 | 1.6 | 8.0 | 0.00 | 0.18 | 0.18 | 73 | 1020.4 |
| 20260905100049 | 18 | 192 | 1.6 | 12.9 | 0.00 | 0.18 | 0.18 | 73 | 1020.3 |
| 20260905095548 | 18 | 219 | 3.2 | 12.9 | 0.00 | 0.18 | 0.18 | 73 | 1020.4 |
| 20260905095050 | 17 | 197 | 3.2 | 11.3 | 0.00 | 0.18 | 0.18 | 75 | 1020.4 |
| 20260905094548 | 17 | 237 | 1.6 | 6.4 | 0.00 | 0.18 | 0.18 | 75 | 1020.4 |
| 20260905094047 | 17 | 186 | 1.6 | 11.3 | 0.00 | 0.18 | 0.18 | 75 | 1020.4 |
| 20260905093547 | 17 | 226 | 3.2 | 11.3 | 0.00 | 0.18 | 0.18 | 74 | 1020.5 |
| 20260905093047 | 17 | 321 | 0.0 | 8.0 | 0.00 | 0.18 | 0.18 | 75 | 1020.4 |
| 20260905092547 | 17 | 295 | 1.6 | 8.0 | 0.00 | 0.18 | 0.18 | 78 | 1020.5 |
| 20260905092049 | 17 | 278 | 1.6 | 8.0 | 0.00 | 0.18 | 0.18 | 77 | 1020.4 |
| 20260905091546 | 17 | 349 | 0.0 | 9.7 | 0.00 | 0.18 | 0.18 | 76 | 1020.4 |
| 20260905091045 | 17 | 71 | 1.6 | 4.8 | 0.00 | 0.18 | 0.18 | 77 | 1020.4 |
| 20260905090548 | 17 | 278 | 0.0 | 4.8 | 0.00 | 0.18 | 0.18 | 78 | 1020.3 |
| 20260905090045 | 17 | 210 | 0.0 | 6.4 | 0.00 | 0.18 | 0.18 | 79 | 1020.2 |
| 20260905085544 | 16 | 222 | 1.6 | 9.7 | 0.00 | 0.18 | 0.18 | 79 | 1020.3 |
| 20260905085045 | 16 | 350 | 1.6 | 9.7 | 0.00 | 0.18 | 0.18 | 80 | 1020.2 |
| 20260905084543 | 16 | 214 | 1.6 | 6.4 | 0.00 | 0.18 | 0.18 | 81 | 1020.2 |
| 20260905084045 | 16 | 193 | 0.0 | 6.4 | 0.00 | 0.18 | 0.18 | 81 | 1020.3 |
| 20260905083542 | 16 | 206 | 1.6 | 6.4 | 0.00 | 0.18 | 0.18 | 82 | 1020.3 |
| 20260905083045 | 16 | 174 | 1.6 | 6.4 | 0.00 | 0.18 | 0.18 | 83 | 1020.3 |
| 20260905082542 | 15 | 135 | 0.0 | 4.8 | 0.00 | 0.18 | 0.18 | 85 | 1020.3 |
| 20260905082044 | 15 | 96 | 0.0 | 4.8 | 0.00 | 0.18 | 0.18 | 84 | 1020.3 |
| 20260905081541 | 15 | 331 | 1.6 | 4.8 | 0.00 | 0.18 | 0.18 | 84 | 1020.3 |
| 20260905081041 | 15 | 153 | 1.6 | 9.7 | 0.00 | 0.18 | 0.18 | 84 | 1020.2 |
| 20260905080540 | 15 | 287 | 1.6 | 9.7 | 0.00 | 0.18 | 0.18 | 85 | 1020.1 |
| 20260905080139 | 15 | 290 | 1.6 | 6.4 | 0.00 | 0.18 | 0.18 | 86 | 1020.0 |
| 20260905075528 | 14 | 220 | 0.0 | 4.8 | 0.00 | 0.18 | 0.18 | 87 | 1020.0 |
| 20260905075027 | 14 | 68 | 1.6 | 4.8 | 0.00 | 0.18 | 0.18 | 87 | 1020.0 |
| 20260905074527 | 14 | 284 | 1.6 | 4.8 | 0.00 | 0.18 | 0.18 | 88 | 1020.0 |
| 20260905074027 | 14 | 99 | 1.6 | 6.4 | 0.00 | 0.18 | 0.18 | 89 | 1019.9 |
| 20260905073528 | 14 | 177 | 0.0 | 6.4 | 0.00 | 0.18 | 0.18 | 89 | 1019.8 |
| 20260905073026 | 13 | 226 | 0.0 | 6.4 | 0.00 | 0.18 | 0.18 | 90 | 1019.8 |
| 20260905072525 | 13 | 299 | 1.6 | 9.7 | 0.00 | 0.18 | 0.18 | 91 | 1019.8 |
| 20260905072024 | 13 | 127 | 1.6 | 9.7 | 0.00 | 0.18 | 0.18 | 91 | 1019.7 |
| 20260905071537 | 13 | 265 | 0.0 | 4.8 | 0.00 | 0.18 | 0.18 | 92 | 1019.7 |
| 20260905071023 | 13 | 255 | 1.6 | 4.8 | 0.00 | 0.18 | 0.18 | 92 | 1019.6 |
| 20260905070523 | 13 | 218 | 1.6 | 4.8 | 0.00 | 0.18 | 0.18 | 92 | 1019.7 |
| 20260905065547 | 13 | 141 | 1.6 | 6.4 | 0.00 | 0.18 | 0.18 | 93 | 1019.6 |
| 20260905065050 | 13 | 284 | 0.0 | 4.8 | 0.00 | 0.18 | 0.18 | 93 | 1019.5 |
| 20260905064547 | 13 | 24 | 0.0 | 4.8 | 0.00 | 0.18 | 0.18 | 93 | 1019.5 |
| 20260905064049 | 13 | 61 | 0.0 | 3.2 | 0.00 | 0.18 | 0.18 | 93 | 1019.5 |
| 20260905063547 | 13 | 280 | 0.0 | 4.8 | 0.00 | 0.18 | 0.18 | 94 | 1019.5 |
| 20260905063046 | 13 | 239 | 0.0 | 4.8 | 0.00 | 0.18 | 0.18 | 94 | 1019.6 |
| 20260905062547 | 13 | 25 | 0.0 | 4.8 | 0.00 | 0.18 | 0.18 | 94 | 1019.6 |
| 20260905062048 | 13 | 88 | 0.0 | 3.2 | 0.00 | 0.18 | 0.18 | 94 | 1019.5 |
| 20260905061544 | 13 | 70 | 0.0 | 3.2 | 0.00 | 0.18 | 0.18 | 94 | 1019.4 |
| 20260905061046 | 13 | 54 | 0.0 | 3.2 | 0.00 | 0.18 | 0.18 | 94 | 1019.4 |
| 20260905060546 | 13 | 126 | 0.0 | 0.0 | 0.00 | 0.18 | 0.18 | 94 | 1019.3 |
| 20260905060042 | 13 | 126 | 0.0 | 0.0 | 0.00 | 0.18 | 0.18 | 94 | 1019.2 |
| 20260905055541 | 13 | 126 | 0.0 | 0.0 | 0.00 | 0.18 | 0.18 | 94 | 1019.2 |
| 20260905055042 | 13 | 126 | 0.0 | 0.0 | 0.00 | 0.18 | 0.18 | 94 | 1019.2 |
| 20260905054545 | 12 | 126 | 0.0 | 0.0 | 0.00 | 0.18 | 0.18 | 93 | 1019.1 |
| 20260905054040 | 13 | 126 | 0.0 | 1.6 | 0.00 | 0.18 | 0.18 | 94 | 1019.0 |
| 20260905053539 | 13 | 126 | 0.0 | 1.6 | 0.00 | 0.18 | 0.18 | 94 | 1019.0 |
| 20260905053050 | 13 | 126 | 0.0 | 0.0 | 0.00 | 0.18 | 0.18 | 93 | 1018.9 |
| 20260905052537 | 12 | 126 | 0.0 | 0.0 | 0.00 | 0.18 | 0.18 | 93 | 1018.8 |
| 20260905052038 | 13 | 126 | 0.0 | 1.6 | 0.00 | 0.18 | 0.18 | 93 | 1018.7 |
| 20260905051536 | 12 | 126 | 0.0 | 1.6 | 0.00 | 0.18 | 0.18 | 93 | 1018.6 |
| 20260905051035 | 12 | 126 | 0.0 | 1.6 | 0.03 | 0.18 | 0.18 | 93 | 1018.7 |
| 20260905050534 | 12 | 126 | 0.0 | 1.6 | 0.05 | 0.18 | 0.18 | 93 | 1018.4 |
| 20260905050034 | 12 | 126 | 0.0 | 4.8 | 0.05 | 0.18 | 0.18 | 93 | 1018.1 |
| 20260905045533 | 12 | 132 | 0.0 | 3.2 | 0.05 | 0.18 | 0.18 | 92 | 1018.1 |
| 20260905045033 | 13 | 131 | 0.0 | 3.2 | 0.08 | 0.18 | 0.18 | 92 | 1017.9 |
| 20260905044633 | 13 | 131 | 0.0 | 3.2 | 0.08 | 0.18 | 0.18 | 92 | 1017.8 |
| 20260905044033 | 13 | 131 | 0.0 | 3.2 | 0.10 | 0.18 | 0.18 | 92 | 1017.6 |
| 20260905043532 | 13 | 131 | 0.0 | 3.2 | 0.15 | 0.18 | 0.18 | 92 | 1017.5 |
| 20260905043031 | 13 | 129 | 0.0 | 3.2 | 0.15 | 0.18 | 0.18 | 92 | 1017.5 |
| 20260905042531 | 13 | 129 | 0.0 | 1.6 | 0.18 | 0.18 | 0.18 | 92 | 1017.4 |
| 20260905042030 | 13 | 129 | 0.0 | 3.2 | 0.18 | 0.18 | 0.18 | 91 | 1017.4 |
| 20260905041529 | 13 | 37 | 0.0 | 3.2 | 0.18 | 0.18 | 0.18 | 91 | 1016.9 |
| 20260905041028 | 13 | 37 | 0.0 | 3.2 | 0.15 | 0.15 | 0.15 | 91 | 1017.4 |
| 20260905040530 | 13 | 122 | 0.0 | 1.6 | 0.15 | 0.15 | 0.15 | 91 | 1017.5 |
| 20260905040027 | 13 | 122 | 0.0 | 1.6 | 0.13 | 0.13 | 0.13 | 90 | 1017.6 |
| 20260905035525 | 13 | 122 | 0.0 | 1.6 | 0.10 | 0.10 | 0.10 | 90 | 1017.7 |
| 20260905035025 | 13 | 122 | 0.0 | 3.2 | 0.10 | 0.10 | 0.10 | 90 | 1017.9 |
| 20260905034525 | 14 | 122 | 0.0 | 3.2 | 0.10 | 0.10 | 0.10 | 89 | 1017.9 |
| 20260905034023 | 14 | 290 | 0.0 | 1.6 | 0.08 | 0.08 | 0.08 | 88 | 1018.0 |
| 20260905033522 | 15 | 297 | 0.0 | 3.2 | 0.05 | 0.05 | 0.05 | 87 | 1018.1 |
| 20260905033021 | 15 | 257 | 0.0 | 3.2 | 0.03 | 0.03 | 0.03 | 86 | 1018.1 |
| 20260905032519 | 15 | 258 | 0.0 | 1.6 | 0.00 | 0.00 | 0.00 | 85 | 1018.2 |
| 20260905032018 | 15 | 257 | 0.0 | 1.6 | 0.00 | 0.00 | 0.00 | 83 | 1017.9 |
| 20260905031519 | 15 | 290 | 0.0 | 1.6 | 0.00 | 0.00 | 0.00 | 83 | 1017.7 |
| 20260905031018 | 15 | 279 | 0.0 | 6.4 | 0.00 | 0.00 | 0.00 | 83 | 1017.5 |
| 20260905030517 | 15 | 237 | 0.0 | 4.8 | 0.00 | 0.00 | 0.00 | 82 | 1017.5 |
| 20260905030018 | 15 | 213 | 0.0 | 11.3 | 0.00 | 0.00 | 0.00 | 82 | 1017.8 |
| 20260905025519 | 16 | 262 | 0.0 | 11.3 | 0.00 | 0.00 | 0.00 | 80 | 1018.0 |
| 20260905025015 | 16 | 288 | 0.0 | 8.0 | 0.00 | 0.00 | 0.00 | 80 | 1018.0 |
| 20260905024516 | 15 | 352 | 0.0 | 4.8 | 0.00 | 0.00 | 0.00 | 80 | 1018.1 |
| 20260905024019 | 15 | 37 | 0.0 | 3.2 | 0.00 | 0.00 | 0.00 | 80 | 1017.7 |
| 20260905023514 | 15 | 222 | 0.0 | 3.2 | 0.00 | 0.00 | 0.00 | 79 | 1016.7 |
| 20260905023019 | 15 | 223 | 0.0 | 3.2 | 0.00 | 0.00 | 0.00 | 79 | 1016.9 |
| 20260905022512 | 15 | 212 | 0.0 | 0.0 | 0.00 | 0.00 | 0.00 | 78 | 1016.8 |
| 20260905022014 | 15 | 212 | 0.0 | 3.2 | 0.00 | 0.00 | 0.00 | 76 | 1016.6 |
| 20260905021511 | 15 | 213 | 0.0 | 4.8 | 0.00 | 0.00 | 0.00 | 75 | 1016.5 |
| 20260905021010 | 16 | 48 | 0.0 | 4.8 | 0.00 | 0.00 | 0.00 | 75 | 1017.1 |
| 20260905020509 | 16 | 305 | 0.0 | 3.2 | 0.00 | 0.00 | 0.00 | 75 | 1016.8 |
| 20260905020009 | 16 | 99 | 0.0 | 4.8 | 0.00 | 0.00 | 0.00 | 73 | 1016.3 |
| 20260905015508 | 16 | 127 | 1.6 | 6.4 | 0.00 | 0.00 | 0.00 | 73 | 1016.5 |
| 20260905015007 | 16 | 247 | 1.6 | 6.4 | 0.00 | 0.00 | 0.00 | 73 | 1017.0 |
| 20260905014506 | 16 | 218 | 0.0 | 6.4 | 0.00 | 0.00 | 0.00 | 73 | 1016.7 |
| 20260905014004 | 17 | 182 | 1.6 | 6.4 | 0.00 | 0.00 | 0.00 | 71 | 1016.4 |
| 20260905013503 | 17 | 275 | 0.0 | 4.8 | 0.00 | 0.00 | 0.00 | 70 | 1016.3 |
| 20260905013003 | 17 | 265 | 1.6 | 4.8 | 0.00 | 0.00 | 0.00 | 70 | 1016.2 |
| 20260905012503 | 17 | 48 | 1.6 | 4.8 | 0.00 | 0.00 | 0.00 | 69 | 1015.9 |
| 20260905012002 | 17 | 180 | 0.0 | 14.5 | 0.00 | 0.00 | 0.00 | 69 | 1016.2 |
| 20260905011502 | 17 | 212 | 1.6 | 11.3 | 0.00 | 0.00 | 0.00 | 69 | 1016.0 |
| 20260905011003 | 17 | 63 | 1.6 | 6.4 | 0.00 | 0.00 | 0.00 | 72 | 1016.1 |
| 20260905010501 | 17 | 243 | 1.6 | 6.4 | 0.00 | 0.00 | 0.00 | 73 | 1016.2 |
| 20260905010001 | 17 | 289 | 0.0 | 3.2 | 0.00 | 0.00 | 0.00 | 73 | 1016.2 |
| 20260905005502 | 17 | 228 | 0.0 | 3.2 | 0.00 | 0.00 | 0.00 | 73 | 1016.0 |
| 20260905005000 | 17 | 230 | 0.0 | 3.2 | 0.00 | 0.00 | 0.00 | 72 | 1016.0 |
| 20260905004501 | 17 | 360 | 0.0 | 3.2 | 0.00 | 0.00 | 0.00 | 72 | 1015.7 |
| 20260905004000 | 17 | 303 | 0.0 | 8.0 | 0.00 | 0.00 | 0.00 | 73 | 1015.8 |
| 20260905003502 | 17 | 205 | 0.0 | 8.0 | 0.00 | 0.00 | 0.00 | 73 | 1015.8 |
| 20260905003100 | 17 | 216 | 0.0 | 6.4 | 0.00 | 0.00 | 0.00 | 72 | 1015.8 |
| 20260905002602 | 17 | 197 | 1.6 | 8.0 | 0.00 | 0.00 | 0.00 | 72 | 1015.7 |
| 20260905002058 | 17 | 340 | 1.6 | 6.4 | 0.00 | 0.00 | 0.00 | 72 | 1015.6 |
| 20260905001558 | 17 | 203 | 1.6 | 6.4 | 0.00 | 0.00 | 0.00 | 70 | 1015.8 |
| 20260905001057 | 17 | 210 | 0.0 | 6.4 | 0.00 | 0.00 | 0.00 | 70 | 1016.0 |
| 20260905000557 | 17 | 262 | 0.0 | 12.9 | 0.00 | 0.00 | 0.00 | 70 | 1015.9 |
| 20260905000057 | 17 | 313 | 3.2 | 12.9 | 0.00 | 0.00 | 0.00 | 71 | 1016.0 |
| 20260904235600 | 18 | 35 | 1.6 | 12.9 | 0.00 | 0.00 | 0.00 | 72 | 1015.8 |
| 20260904235056 | 17 | 135 | 3.2 | 12.9 | 0.00 | 0.00 | 0.00 | 73 | 1016.2 |
| 20260904234558 | 17 | 56 | 1.6 | 14.5 | 0.00 | 0.00 | 0.00 | 74 | 1016.1 |
| 20260904234055 | 17 | 201 | 1.6 | 14.5 | 0.00 | 0.00 | 0.00 | 75 | 1016.2 |
| 20260904233558 | 17 | 213 | 3.2 | 14.5 | 0.00 | 0.00 | 0.00 | 76 | 1016.0 |
| 20260904233055 | 17 | 292 | 3.2 | 9.7 | 0.00 | 0.00 | 0.00 | 77 | 1015.8 |
| 20260904232554 | 17 | 274 | 0.0 | 8.0 | 0.00 | 0.00 | 0.00 | 77 | 1016.1 |
| 20260904232053 | 17 | 78 | 0.0 | 6.4 | 0.00 | 0.00 | 0.00 | 77 | 1015.7 |
| 20260904231553 | 17 | 224 | 0.0 | 6.4 | 0.00 | 0.00 | 0.00 | 77 | 1015.8 |
| 20260904231051 | 17 | 280 | 0.0 | 8.0 | 0.00 | 0.00 | 0.00 | 77 | 1015.6 |
| 20260904230550 | 17 | 159 | 1.6 | 14.5 | 0.00 | 0.00 | 0.00 | 76 | 1015.2 |
| 20260904230003 | 17 | 324 | 3.2 | 14.5 | 0.00 | 0.00 | 0.00 | 76 | 1014.8 |
| 20260904225501 | 18 | 31 | 3.2 | 16.1 | 0.00 | 0.00 | 0.00 | 75 | 1014.4 |
| 20260904225100 | 18 | 49 | 3.2 | 16.1 | 0.00 | 0.00 | 0.00 | 74 | 1014.5 |
| 20260904224608 | 18 | 64 | 3.2 | 12.9 | 0.00 | 0.00 | 0.00 | 73 | 1014.3 |
| 20260904224058 | 19 | 132 | 1.6 | 8.0 | 0.00 | 0.00 | 0.00 | 73 | 1014.2 |